DELTA 1 DEB, 7056

Orbit data source: Space-Track

DELTA 1 DEB, 7056 is space debris in SSO originally from a launch on Tue, 06 Nov 1973 UTC launched from the Air Force Western Test Range (AFWTR). Debris objects in space refer to the collection of defunct objects orbiting the Earth. Examples of debris include non-operational satellites, rocket bodies, and fragments generated from explosions, collisions, or faulty payload assembly.

Loading next visibility...
Identifier
7056, 1973-086AY
Orbit
SSO
Country
Flag of USUS
Related business
Manufacturer
Unknown
Mission
Spacecraft
Bus & Motor
Unknown
Mass
Unknown
Launch date (UTC)
1973-11-06 (52 years ago)
Launch vehicle
Unknown
Launch site
Air Force Western Test Range (AFWTR)
Object type
Payload
Rocket body
Debris
Shape & HBR
Unknown shape, 0.2 m
Radar Cross Section
Small (<0.1 m²)

Expand to show TLE details & history
Last TLE update: 21 hours ago

TLE from 21 hours ago
0 DELTA 1 DEB
1 07056U 73086AY  25348.75308337  .00000000  00000-0  42310-3 0  9993
2 07056 102.7273 347.5260 0087051 139.6366  50.1070 12.24172198327556
Epoch: 2025-12-14T18:04Z
TLE epoch observation values (Epoch: 2025-12-14T18:04:26.403Z)
Latitude
-10.41061°
Longitude
170.38786°
Altitude
1,534.819 km
Speed
7.118 km/s
True Right ascension
11h 00m 38s
True Declination
-10° 21' 20"
Sunlit
Object was in daylight at epoch
Visualization orbit readout
Latitude
Unknown
Longitude
Unknown
Altitude
Unknown
Speed
Unknown
Apparent Right ascension
Unknown
Apparent Declination
Unknown
Sunlit
N/A
Visualization observer readout
Local Sidereal Time
13:23:49
Azimuth
Unknown
Elevation
Unknown
Doppler factor
Unknown
Orbital elements
Apogee altitude
1,641.267 km
Perigee altitude
1,502.853 km
Semi-major axis
7,950.197 km
Eccentricity
0.00871
Inclination
102.7273°
RAAN
347.526°
Arg. of periapsis
139.6366°
True anomaly
50.8777°
Mean anomaly
50.107°
Eccentric anomaly
50.49181°
Mean motion
3.0618 °/min
Orbital period
117.58 mins
BSTAR
0.0004231
Loading maneuver chart data...
Computing Atmospheric mass density...
Loading historical data...
Loading historical data...
Loading historical data...
Loading historical data...
Loading historical data...
Loading historical data...
Loading historical data...

Documentation

Showing up to 5 results
|